This demonstration page uses our WeatherBlox Daily Observations layout. Learn more.

Left ArrowRight Arrow

39.29038, -76.61219

Hourly Observations for March 27, 2015

Temp ( °F °C ) Dew Point ( °F °C ) Humidity (%) Winds ( mph kmh ) Pressure ( in mb ) Visibility ( mi km ) Precip ( " mm )
12:54 am 00:54 undefined 50 10 40 4.4 68 68 undefined N/A 29.75 1007 N/A 0.00 0.00
1:54 am 01:54 undefined 48 8.9 42 5.6 80 80 undefined N/A 29.77 1008 N/A 0.09 2.29
2:54 am 02:54 undefined 47 8.3 43 6.1 86 86 undefined N/A 29.76 1008 N/A 0.09 2.29
3:54 am 03:54 undefined 47 8.3 42 5.6 83 83 undefined N/A 29.79 1009 N/A 0.02 0.51
4:54 am 04:54 undefined 43 6.1 38 3.3 82 82 undefined N/A 29.80 1009 N/A 0.17 4.32
5:54 am 05:54 undefined 41 5 37 2.8 86 86 undefined N/A 29.80 1009 N/A 0.12 3.05
6:54 am 06:54 undefined 42 5.6 39 3.9 89 89 undefined N/A 29.79 1009 N/A 0.02 0.51
7:54 am 07:54 undefined 44 6.7 38 3.3 79 79 undefined N/A 29.82 1010 N/A 0.00 0.00
8:54 am 08:54 undefined 43 6.1 36 2.2 76 76 undefined N/A 29.79 1009 N/A 0.01 0.25
9:54 am 09:54 undefined 44 6.7 36 2.2 73 73 undefined N/A 29.81 1010 N/A 0.00 0.00
10:54 am 10:54 undefined 45 7.2 36 2.2 71 71 undefined N/A 29.81 1010 N/A 0.00 0.00
11:54 am 11:54 undefined 45 7.2 34 1.1 66 66 undefined N/A 29.81 1010 N/A 0.00 0.00
12:54 pm 12:54 undefined 45 7.2 31 -0.6 58 58 undefined N/A 29.79 1009 N/A 0.00 0.00
1:54 pm 13:54 undefined 47 8.3 29 -1.7 50 50 undefined N/A 29.80 1009 N/A 0.00 0.00
2:54 pm 14:54 undefined 47 8.3 28 -2.2 48 48 undefined N/A 29.78 1008 N/A 0.00 0.00
3:54 pm 15:54 undefined 48 8.9 26 -3.3 42 42 undefined N/A 29.76 1008 N/A 0.00 0.00
4:54 pm 16:54 undefined 48 8.9 26 -3.3 42 42 undefined N/A 29.76 1008 N/A 0.00 0.00
5:54 pm 17:54 undefined 49 9.4 25 -3.9 39 39 undefined N/A 29.75 1007 N/A 0.00 0.00
6:54 pm 18:54 undefined 49 9.4 24 -4.4 38 38 undefined N/A 29.77 1008 N/A 0.00 0.00
7:54 pm 19:54 undefined 47 8.3 24 -4.4 41 41 undefined N/A 29.79 1009 N/A 0.00 0.00
8:54 pm 20:54 undefined 47 8.3 25 -3.9 42 42 undefined N/A 29.80 1009 N/A 0.00 0.00
10:54 pm 22:54 undefined 45 7.2 22 -5.6 40 40 undefined N/A 29.81 1009 N/A 0.00 0.00
11:54 pm 23:54 undefined 44 6.7 22 -5.6 41 41 undefined N/A 29.82 1010 N/A 0.00 0.00

Powered by AerisWeather